Find Kosmos-2181

NORAD ID: 21902 Int'l Des: 1992-012 Owner: VMFR Country: RU operational
LEOCIRCULARPOLAR

Live-Position

3D-Globus wird geladen...

Über Kosmos-2181

Beschreibung wird geladen...

Nächste Überflüge

Passes for default location (London). Set your location on the main map for personalized predictions.

Höhenverlauf

Loading altitude history...

Zweizeiliger Elementsatz

1 21902U 92012A 26122.06868137 .00000066 00000-0 55901-4 0 9996
2 21902 82.9443 341.9819 0027812 205.4119 318.9374 13.72568317709995
Epoch: 2. Mai 2026 • Age: 11 hours

Aktueller Status

Höhe 974.6 km
Geschwindigkeit 7.37 km/s
Subsatellitenpunkt -0.71°S, 117.94°E
Startdatum 9. März 1992
Alter 34.1 years
Typ other

Technische Details

Klassifizierung Payload
Masse 800.00 kg
Trockenmasse 800.00 kg
Gesamtmasse 800.00 kg
Länge 5.00 m
Durchmesser 2.10 m
Spannweite 17.00 m
Form Cyl + Ant
Hersteller POL
Bus-Typ KAUR-1 11F643
Phasenstatus In Orbit
Besitzer/Staat VMFR/RU

Most Searched